Regional Weather Roundup
Issued by NWS Green Bay, WI

Home | Current Version | Previous Version | Text Only | Print | Product List | Glossary On
Versions: 1 2 3 4 5 6 7 8 9 10 11 12 13 14 15 16 17 18 19 20 21 22 23 24 25 26 27 28 29 30 31 32 33 34 35 36 37 38 39 40 41 42 43 44 45 46 47 48 49 50
000
ASUS43 KGRB 171211
RWRGRB

NORTH-CENTRAL AND NORTHEAST WISCONSIN REGIONAL WEATHER ROUNDUP
NATIONAL WEATHER SERVICE GREEN BAY WI
700 AM CDT THU AUG 17 2017

WIZ005-009-010>012-018-019-171300-
NORTH CENTRAL WISCONSIN

CITY           SKY/WX    TMP DP  RH WIND       PRES   REMARKS
IRONWOOD       CLOUDY    62  61  96 E7        29.64S
MANITOWISH WTR CLOUDY    63  63 100 E7        29.65S FOG
ARBOR VITAE    FOG       64  64  97 E7        29.64F VSB 1
EAGLE RIVER    CLOUDY    64  64 100 SE7       29.67S FOG
LAND O LAKES   CLOUDY    65  64  99 SE6       29.69S
RHINELANDER    FOG       64  64 100 E8        29.66S VSB 1/4
PHILLIPS       CLOUDY    64  64 100 E5        29.61F
ANTIGO         FOG       66  66 100 SE8       29.67S VSB<1/4
TOMAHAWK       FOG       65  64  97 SE3       29.65R VSB 1/2
MERRILL        NOT AVBL
$$

WIZ013-073-171300-
NORTHEAST WISCONSIN

CITY           SKY/WX    TMP DP  RH WIND       PRES   REMARKS
IRON MOUNTAIN  CLOUDY    67  64  90 E6        29.67S FOG
MARINETTE      CLOUDY    71  70  96 S8        29.67F FOG
OCONTO         CLOUDY    71  70  97 SE9       29.66S
$$

WIZ017-030-035>037-045-171300-
CENTRAL WISCONSIN

CITY           SKY/WX    TMP DP  RH WIND       PRES   REMARKS
MEDFORD        MOCLDY    67  65  94 S10       29.62S
WAUSAU         CLOUDY    68  68 100 S3        29.62R FOG
MOSINEE        MOCLDY    68  68 100 SE9       29.64F FOG
MARSHFIELD     CLOUDY    68  64  87 SW14      29.62S
WISC RAPIDS    CLEAR     70  68  93 SW9       29.65R
STEVENS POINT  CLOUDY    69  69 100 S8        29.65S
WAUPACA        CLEAR     73  72  98 SE9       29.65F FOG
SHAWANO        CLOUDY    73  70  93 S3        29.65S FOG
CLINTONVILLE   CLOUDY    70  70 100 S7        29.65S FOG
WAUTOMA        PTCLDY    72  70  93 S10       29.67R
$$

WIZ038-039-048-051-171300-
FOX VALLEY

CITY           SKY/WX    TMP DP  RH WIND       PRES   REMARKS
NWS GREEN BAY  LGT RAIN  72  72 100 S12       29.67S
APPLETON       MOCLDY    72  72 100 S10       29.66S
OSHKOSH        PTCLDY    71  69  93 S9        29.67S
FOND DU LAC    CLOUDY    73  69  87 S10       29.69R
$$

WIZ022-050-052-171300-
EAST CENTRAL WISCONSIN

CITY           SKY/WX    TMP DP  RH WIND       PRES   REMARKS
EPHRAIM        CLOUDY    68  67  98 S10G16    29.69F
WASHINGTON ISL CLOUDY    67  66  96 S8        29.70S
STURGEON BAY   LGT RAIN  70  70 100 S12       29.69F FOG
MANITOWOC      LGT RAIN  68  65  90 CALM      29.71R
SHEBOYGAN      CLOUDY    73  73 100 S10       29.71S
$$

LMZ563-521-522-541>543-171300-
LAKESHORE

STATION/POSITION TIME  TEMP    WIND        PRES    VSBY  WAVE
                       AIR SEA DIR/SP/G                  HT/PER
                 (UTC) (F)     (DEG/KT/KT) (MB)    (MI)  (FT/S)
SHEBOYGAN LKSHOR 1200   73     190/ 13/ 15 1005.5R
KEWAUNEE LKSHORE 1148   70     190/ 12/ 19 1004.9S
NORTHPORT PIER   1140   69     150/ 14/ 19 1005.8S
N MID LAKE BUOY  1150   68 67  140/ 19/ 21 1006.4R         4/ 4
S GREEN BAY BUOY 1200   72 71  160/ 14/ 16 1004.6
SISTER BAY LKSHO 1203   69     160/ 14/ 20   N/A
MENOMINEE LKSHOR 1148   71     150/ 16/ 18 1004.4F
$$




USA.gov is the U.S. government's official web portal to all federal, state and local government web resources and services.